BNI5E EPMO-EPMO

Flight info

Callsign BNI5E
Flight time 0h 3m
Altitude 2000
Route EPMO/26 DCT EPMOU DCT EPMOJ DCT EPMOP DCT EPMON DCT EPWAO DCT EPWAE DCT EPWA/33
Aircraft P208/L-SG/C

Departure

Time 2026-04-26 19:26
Airport Warsaw Modlin Airport (EPMO)

Arrival

Time 2026-04-26 19:30
Airport Warsaw Modlin Airport (EPMO)
Time Latitude Longitude Altitude Speed Heading
2026-04-26 18:56 52.44889 20.66622 348 ft 0 kts 351°
2026-04-26 19:21 52.44892 20.66621 348 ft 3 kts 353°
2026-04-26 19:22 52.44916 20.66623 348 ft 3 kts 27°
2026-04-26 19:22 52.44918 20.66626 348 ft 0 kts 52°
2026-04-26 19:22 52.44929 20.66745 347 ft 19 kts 80°
2026-04-26 19:22 52.44950 20.66966 347 ft 18 kts 79°
2026-04-26 19:23 52.44991 20.67075 348 ft 6 kts 14°
2026-04-26 19:23 52.45058 20.67067 344 ft 14 kts 351°
2026-04-26 19:23 52.45156 20.67041 343 ft 11 kts 350°
2026-04-26 19:23 52.45203 20.67021 345 ft 0 kts 341°
2026-04-26 19:24 52.45212 20.67015 343 ft 7 kts 340°
2026-04-26 19:25 52.45270 20.66968 343 ft 7 kts 312°
2026-04-26 19:25 52.45283 20.66931 343 ft 5 kts 283°
2026-04-26 19:25 52.45263 20.66675 337 ft 38 kts 263°
2026-04-26 19:25 52.45220 20.66073 394 ft 65 kts 270°
2026-04-26 19:26 52.45099 20.65312 587 ft 72 kts 261°
2026-04-26 19:26 52.44981 20.64496 763 ft 79 kts 269°
2026-04-26 19:26 52.45114 20.63638 930 ft 81 kts 316°
2026-04-26 19:26 52.45612 20.63279 1139 ft 80 kts 352°
2026-04-26 19:27 52.46144 20.63164 1401 ft 75 kts 352°
2026-04-26 19:27 52.46673 20.63176 1514 ft 80 kts 11°
2026-04-26 19:27 52.47136 20.63741 1542 ft 87 kts 44°
2026-04-26 19:27 52.47330 20.64660 1545 ft 90 kts 76°
2026-04-26 19:28 52.47268 20.65747 1556 ft 102 kts 88°
2026-04-26 19:28 52.47162 20.66878 1508 ft 95 kts 86°
2026-04-26 19:28 52.47068 20.67917 1443 ft 90 kts 90°
2026-04-26 19:28 52.46970 20.68914 1448 ft 93 kts 88°
2026-04-26 19:29 52.46674 20.69770 1447 ft 90 kts 142°
2026-04-26 19:29 52.46102 20.69964 1430 ft 79 kts 199°
2026-04-26 19:29 52.45632 20.69431 1092 ft 94 kts 242°
2026-04-26 19:29 52.45417 20.68458 708 ft 88 kts 265°
2026-04-26 19:30 52.45338 20.67573 476 ft 67 kts 269°
2026-04-26 19:30 52.45280 20.66876 355 ft 57 kts 270°
2026-04-26 19:30 52.45244 20.66398 339 ft 29 kts 256°
2026-04-26 19:30 52.45219 20.66115 342 ft 44 kts 265°
2026-04-26 19:31 52.45135 20.65310 451 ft 65 kts 264°
2026-04-26 19:31 52.45033 20.64588 668 ft 68 kts 264°
2026-04-26 19:31 52.44966 20.63781 854 ft 73 kts 271°
2026-04-26 19:31 52.44917 20.62940 1088 ft 74 kts 277°
2026-04-26 19:32 52.45105 20.62240 1306 ft 70 kts 330°
2026-04-26 19:32 52.45601 20.62075 1472 ft 77 kts 355°
2026-04-26 19:32 52.46134 20.62120 1486 ft 72 kts
2026-04-26 19:32 52.46607 20.62334 1508 ft 70 kts 11°
2026-04-26 19:33 52.47036 20.62716 1501 ft 75 kts 30°
2026-04-26 19:33 52.47331 20.63436 1579 ft 82 kts 62°
2026-04-26 19:33 52.47367 20.64440 1512 ft 95 kts 84°
2026-04-26 19:33 52.47280 20.65519 1543 ft 92 kts 90°
2026-04-26 19:34 52.47157 20.66511 1539 ft 90 kts 90°
2026-04-26 19:34 52.47058 20.67531 1510 ft 89 kts 85°
2026-04-26 19:34 52.46996 20.68592 1510 ft 98 kts 81°
2026-04-26 19:34 52.46960 20.69684 1544 ft 91 kts 89°
2026-04-26 19:35 52.46652 20.70523 1502 ft 84 kts 134°
2026-04-26 19:35 52.46132 20.70747 1397 ft 79 kts 201°
2026-04-26 19:35 52.45727 20.70220 1084 ft 75 kts 243°
2026-04-26 19:35 52.45523 20.69505 791 ft 64 kts 259°
2026-04-26 19:36 52.45446 20.68783 607 ft 68 kts 269°
2026-04-26 19:36 52.45412 20.68265 560 ft 65 kts 269°
2026-04-26 19:36 52.45328 20.67338 413 ft 62 kts 266°
2026-04-26 19:36 52.45259 20.66706 339 ft 45 kts 270°
2026-04-26 19:37 52.45230 20.66318 339 ft 36 kts 262°
2026-04-26 19:37 52.45155 20.65720 402 ft 66 kts 263°
2026-04-26 19:37 52.45054 20.64969 578 ft 76 kts 265°
2026-04-26 19:37 52.44980 20.64024 779 ft 83 kts 270°
2026-04-26 19:38 52.44926 20.63132 1088 ft 77 kts 272°
2026-04-26 19:38 52.44606 20.62335 1323 ft 94 kts 225°
2026-04-26 19:38 52.43945 20.62032 1470 ft 107 kts 172°
2026-04-26 19:38 52.43272 20.62541 1680 ft 109 kts 142°
2026-04-26 19:39 52.42687 20.63435 1634 ft 114 kts 118°
2026-04-26 19:39 52.42359 20.64601 1546 ft 116 kts 99°
2026-04-26 19:39 52.42213 20.65832 1498 ft 107 kts 86°
2026-04-26 19:39 52.42170 20.67031 1476 ft 102 kts 80°
2026-04-26 19:40 52.42205 20.68171 1529 ft 100 kts 75°
2026-04-26 19:40 52.42275 20.69330 1438 ft 103 kts 75°
2026-04-26 19:40 52.42377 20.70461 1395 ft 95 kts 64°
2026-04-26 19:40 52.42627 20.71430 1455 ft 86 kts 44°
2026-04-26 19:41 52.43088 20.72029 1435 ft 87 kts 24°
2026-04-26 19:41 52.43537 20.72336 1393 ft 64 kts
2026-04-26 19:41 52.43993 20.72168 1164 ft 68 kts 334°
2026-04-26 19:41 52.44273 20.71907 1104 ft 68 kts 332°
2026-04-26 19:42 52.44765 20.71476 1076 ft 55 kts 334°
2026-04-26 19:42 52.44998 20.71022 931 ft 58 kts 298°
2026-04-26 19:42 52.45152 20.70366 829 ft 62 kts 295°
2026-04-26 19:42 52.45279 20.69695 730 ft 61 kts 291°
2026-04-26 19:43 52.45379 20.68990 605 ft 64 kts 281°
2026-04-26 19:43 52.45382 20.68287 526 ft 60 kts 274°
2026-04-26 19:43 52.45342 20.67592 447 ft 60 kts 269°
2026-04-26 19:43 52.45286 20.66909 351 ft 60 kts 265°
2026-04-26 19:44 52.45238 20.66378 337 ft 33 kts 262°
2026-04-26 19:44 52.45167 20.65841 403 ft 60 kts 261°
2026-04-26 19:44 52.45086 20.65125 603 ft 67 kts 267°
2026-04-26 19:44 52.45008 20.64339 812 ft 72 kts 265°
2026-04-26 19:45 52.44791 20.63506 927 ft 86 kts 232°
2026-04-26 19:45 52.44219 20.63233 1123 ft 93 kts 171°
2026-04-26 19:45 52.43664 20.63808 1292 ft 96 kts 132°
2026-04-26 19:45 52.43165 20.64584 1479 ft 98 kts 129°
2026-04-26 19:46 52.42680 20.65417 1554 ft 102 kts 129°
2026-04-26 19:46 52.42167 20.66243 1581 ft 107 kts 128°
2026-04-26 19:46 52.41641 20.67126 1672 ft 105 kts 127°
2026-04-26 19:46 52.41156 20.68024 1637 ft 109 kts 122°
2026-04-26 19:47 52.40690 20.68972 1599 ft 107 kts 120°
2026-04-26 19:47 52.40394 20.69639 1518 ft 106 kts 118°
2026-04-26 19:47 52.39839 20.70910 1511 ft 103 kts 119°
2026-04-26 19:47 52.39453 20.71866 1508 ft 99 kts 111°
2026-04-26 19:48 52.39139 20.72871 1494 ft 97 kts 107°
2026-04-26 19:48 52.38803 20.73853 1425 ft 104 kts 118°
2026-04-26 19:48 52.38383 20.74798 1406 ft 100 kts 118°
2026-04-26 19:48 52.37951 20.75705 1344 ft 103 kts 124°
2026-04-26 19:49 52.37470 20.76557 1321 ft 98 kts 122°
2026-04-26 19:49 52.37209 20.77540 1415 ft 96 kts 95°
2026-04-26 19:49 52.37017 20.78612 1516 ft 99 kts 100°
2026-04-26 19:49 52.36725 20.79620 1638 ft 101 kts 107°
2026-04-26 19:50 52.36497 20.80720 1699 ft 104 kts 96°
2026-04-26 19:50 52.36273 20.81842 1566 ft 100 kts 98°
2026-04-26 19:50 52.36097 20.82890 1504 ft 93 kts 90°
2026-04-26 19:50 52.35946 20.83910 1396 ft 95 kts 95°
2026-04-26 19:51 52.35761 20.84895 1443 ft 87 kts 96°
2026-04-26 19:51 52.35583 20.85874 1394 ft 92 kts 97°
2026-04-26 19:51 52.35383 20.86857 1294 ft 87 kts 98°
2026-04-26 19:51 52.35347 20.87788 1403 ft 82 kts 75°
2026-04-26 19:52 52.35371 20.88733 1479 ft 87 kts 76°
2026-04-26 19:52 52.35327 20.89779 1528 ft 98 kts 101°
2026-04-26 19:52 52.34936 20.90698 1605 ft 100 kts 124°
2026-04-26 19:52 52.34517 20.91574 1580 ft 91 kts 116°
2026-04-26 19:53 52.34121 20.92442 1594 ft 98 kts 119°
2026-04-26 19:53 52.33697 20.93264 1560 ft 104 kts 128°
2026-04-26 19:53 52.33194 20.94057 1551 ft 98 kts 129°
2026-04-26 19:53 52.32678 20.94781 1550 ft 97 kts 135°
2026-04-26 19:54 52.32150 20.95499 1485 ft 97 kts 134°
2026-04-26 19:54 52.31671 20.96268 1498 ft 97 kts 127°
2026-04-26 19:54 52.31207 20.97053 1486 ft 95 kts 126°
2026-04-26 19:54 52.30727 20.97821 1534 ft 95 kts 128°
2026-04-26 19:55 52.30247 20.98577 1510 ft 97 kts 129°
2026-04-26 19:55 52.29677 20.99136 1561 ft 99 kts 159°
2026-04-26 19:55 52.28988 20.99451 1461 ft 104 kts 165°
2026-04-26 19:55 52.28306 20.99715 1344 ft 99 kts 168°
2026-04-26 19:56 52.27640 21.00001 1252 ft 98 kts 162°
2026-04-26 19:56 52.27001 21.00354 1303 ft 95 kts 161°
2026-04-26 19:56 52.26369 21.00728 1284 ft 97 kts 154°
2026-04-26 19:56 52.25754 21.01190 1335 ft 98 kts 153°
2026-04-26 19:57 52.25149 21.01772 1332 ft 104 kts 143°
2026-04-26 19:57 52.24542 21.02341 1340 ft 101 kts 139°
2026-04-26 19:57 52.23994 21.03154 1263 ft 106 kts 135°
2026-04-26 19:57 52.23410 21.03861 1243 ft 105 kts 146°
2026-04-26 19:58 52.22836 21.04546 1301 ft 101 kts 136°
2026-04-26 19:58 52.22380 21.05401 1314 ft 99 kts 117°
2026-04-26 19:58 52.22001 21.06348 1372 ft 99 kts 116°
2026-04-26 19:58 52.21607 21.07266 1410 ft 96 kts 120°
2026-04-26 19:59 52.21109 21.07958 1436 ft 100 kts 167°
2026-04-26 19:59 52.20563 21.07481 1422 ft 93 kts 249°
2026-04-26 19:59 52.20237 21.06583 1490 ft 90 kts 251°
2026-04-26 19:59 52.19932 21.05712 1520 ft 87 kts 256°
2026-04-26 20:00 52.19843 21.05415 1520 ft 86 kts 257°
2026-04-26 20:00 52.19693 21.04902 1561 ft 86 kts 257°
2026-04-26 20:00 52.19418 21.04017 1647 ft 87 kts 253°
2026-04-26 20:01 52.19124 21.03171 1531 ft 84 kts 256°
2026-04-26 20:01 52.18863 21.02345 1475 ft 82 kts 254°
2026-04-26 20:01 52.18601 21.01502 1524 ft 86 kts 261°
2026-04-26 20:01 52.18282 21.00664 1592 ft 89 kts 223°
2026-04-26 20:02 52.17648 21.00513 1593 ft 99 kts 179°
2026-04-26 20:02 52.16938 21.00548 1437 ft 103 kts 181°
2026-04-26 20:02 52.16248 21.00696 1410 ft 92 kts 169°
2026-04-26 20:02 52.15861 21.00831 1350 ft 83 kts 163°
2026-04-26 20:03 52.15072 21.01074 1208 ft 83 kts 171°
2026-04-26 20:03 52.14509 21.01243 1077 ft 81 kts 174°
2026-04-26 20:03 52.13968 21.01293 994 ft 74 kts 201°
2026-04-26 20:03 52.13702 21.00697 972 ft 66 kts 289°
2026-04-26 20:04 52.13876 20.99965 807 ft 67 kts 303°
2026-04-26 20:04 52.14103 20.99343 698 ft 63 kts 312°
2026-04-26 20:04 52.14368 20.98786 636 ft 58 kts 314°
2026-04-26 20:04 52.14687 20.98370 533 ft 55 kts 332°
2026-04-26 20:05 52.15019 20.98085 476 ft 56 kts 334°
2026-04-26 20:05 52.15361 20.97779 393 ft 54 kts 333°
2026-04-26 20:05 52.15677 20.97501 335 ft 51 kts 334°
2026-04-26 20:05 52.15921 20.97283 335 ft 21 kts 329°
2026-04-26 20:06 52.16043 20.97174 332 ft 16 kts 322°
2026-04-26 20:06 52.16114 20.97069 334 ft 12 kts 337°
2026-04-26 20:06 52.16241 20.96988 332 ft 15 kts 347°
2026-04-26 20:06 52.16302 20.96985 333 ft 0 kts 43°